Time,TemperatureF,DewpointF,PressureIn,WindDirection,WindDirectionDegrees,WindSpeedMPH,WindSpeedGustMPH,Humidity,HourlyPrecipIn,Conditions,Clouds,dailyrainin,SoftwareType,DateUTC
2013-02-02 00:00:00,43.7,24.3,29.44,NNE,14,0.0,0.0,46,0.00,,---,0.00,VWS V14.01,2013-02-02 08:00:00,
2013-02-02 00:06:00,43.7,26.3,29.47,NNE,14,0.0,0.0,50,0.00,,---,0.00,VWS V14.01,2013-02-02 08:06:00,
2013-02-02 00:11:00,43.9,28.3,29.47,ENE,68,3.1,3.6,54,0.00,,---,0.00,VWS V14.01,2013-02-02 08:11:00,
2013-02-02 00:16:00,45.0,31.9,29.47,East,81,3.6,4.0,60,0.00,,---,0.00,VWS V14.01,2013-02-02 08:16:00,
2013-02-02 00:21:00,45.1,32.1,29.47,East,99,3.1,4.0,60,0.00,,---,0.00,VWS V14.01,2013-02-02 08:21:00,
2013-02-02 00:26:00,45.0,31.1,29.47,East,87,0.0,3.6,58,0.00,,---,0.00,VWS V14.01,2013-02-02 08:26:00,
2013-02-02 00:31:00,45.1,31.3,29.47,East,87,0.0,0.0,58,0.00,,---,0.00,VWS V14.01,2013-02-02 08:31:00,
2013-02-02 00:36:00,45.9,32.4,29.47,East,99,3.6,4.0,59,0.00,,---,0.00,VWS V14.01,2013-02-02 08:36:00,
2013-02-02 00:41:00,45.1,31.7,29.47,East,101,4.0,4.5,59,0.00,,---,0.00,VWS V14.01,2013-02-02 08:41:00,
2013-02-02 00:46:00,45.0,31.1,29.47,ESE,102,2.7,3.6,58,0.00,,---,0.00,VWS V14.01,2013-02-02 08:46:00,
2013-02-02 00:51:00,44.8,30.9,29.47,ESE,102,0.0,0.0,58,0.00,,---,0.00,VWS V14.01,2013-02-02 08:51:00,
2013-02-02 00:56:00,43.7,28.6,29.47,ESE,102,3.1,3.1,55,0.00,,---,0.00,VWS V14.01,2013-02-02 08:56:00,
2013-02-02 01:01:00,43.7,28.6,29.47,East,101,0.0,0.0,55,0.00,,---,0.00,VWS V14.01,2013-02-02 09:01:00,
2013-02-02 01:07:00,44.1,29.8,29.47,ESE,102,0.0,0.0,57,0.00,,---,0.00,VWS V14.01,2013-02-02 09:07:00,
2013-02-02 01:12:00,44.4,31.0,29.47,ESE,102,2.7,2.7,59,0.00,,---,0.00,VWS V14.01,2013-02-02 09:12:00,
2013-02-02 01:17:00,44.4,31.4,29.47,East,101,0.0,0.0,60,0.00,,---,0.00,VWS V14.01,2013-02-02 09:17:00,
2013-02-02 01:22:00,43.9,30.5,29.47,ESE,102,0.0,0.0,59,0.00,,---,0.00,VWS V14.01,2013-02-02 09:22:00,
2013-02-02 01:27:00,43.0,29.2,29.47,East,101,0.0,0.0,58,0.00,,---,0.00,VWS V14.01,2013-02-02 09:27:00,
2013-02-02 01:32:00,42.8,29.1,29.47,ESE,102,0.0,0.0,58,0.00,,---,0.00,VWS V14.01,2013-02-02 09:32:00,
2013-02-02 01:37:00,43.0,30.1,29.47,ESE,102,0.0,0.0,60,0.00,,---,0.00,VWS V14.01,2013-02-02 09:37:00,
2013-02-02 01:42:00,43.7,32.3,29.47,SE,132,4.0,4.5,64,0.00,,---,0.00,VWS V14.01,2013-02-02 09:42:00,
2013-02-02 01:47:00,44.2,33.2,29.47,SE,132,0.0,0.0,65,0.00,,---,0.00,VWS V14.01,2013-02-02 09:47:00,
2013-02-02 01:53:00,44.4,33.4,29.47,SE,132,3.1,4.0,65,0.00,,---,0.00,VWS V14.01,2013-02-02 09:53:00,
2013-02-02 01:58:00,45.1,34.5,29.47,SE,132,0.0,0.0,66,0.00,,---,0.00,VWS V14.01,2013-02-02 09:58:00,
2013-02-02 02:03:00,44.4,33.0,29.47,SE,132,0.0,0.0,64,0.00,,---,0.00,VWS V14.01,2013-02-02 10:03:00,
2013-02-02 02:08:00,44.1,31.9,29.47,SE,132,0.0,0.0,62,0.00,,---,0.00,VWS V14.01,2013-02-02 10:08:00,
2013-02-02 02:14:00,43.3,30.8,29.47,SE,132,0.0,0.0,61,0.00,,---,0.00,VWS V14.01,2013-02-02 10:14:00,
2013-02-02 02:19:00,42.4,29.1,29.47,SE,132,0.0,0.0,59,0.00,,---,0.00,VWS V14.01,2013-02-02 10:19:00,
2013-02-02 02:24:00,42.3,29.0,29.47,SE,132,0.0,0.0,59,0.00,,---,0.00,VWS V14.01,2013-02-02 10:24:00,
2013-02-02 02:29:00,42.1,28.8,29.47,SE,132,0.0,0.0,59,0.00,,---,0.00,VWS V14.01,2013-02-02 10:29:00,
2013-02-02 02:34:00,42.1,29.2,29.47,SE,132,0.0,0.0,60,0.00,,---,0.00,VWS V14.01,2013-02-02 10:34:00,
2013-02-02 02:39:00,42.3,29.8,29.47,SE,132,0.0,0.0,61,0.00,,---,0.00,VWS V14.01,2013-02-02 10:39:00,
2013-02-02 02:44:00,42.8,31.5,29.47,SE,132,0.0,2.7,64,0.00,,---,0.00,VWS V14.01,2013-02-02 10:44:00,
2013-02-02 02:49:00,43.5,33.7,29.47,SE,139,4.0,4.0,68,0.00,,---,0.00,VWS V14.01,2013-02-02 10:49:00,
2013-02-02 02:54:00,44.1,34.6,29.47,SSW,208,2.7,3.6,69,0.00,,---,0.00,VWS V14.01,2013-02-02 10:54:00,
2013-02-02 02:59:00,43.2,33.0,29.47,SSW,208,0.0,0.0,67,0.00,,---,0.00,VWS V14.01,2013-02-02 10:59:00,
2013-02-02 03:04:00,42.3,31.4,29.47,SSW,208,0.0,0.0,65,0.00,,---,0.00,VWS V14.01,2013-02-02 11:04:00,
2013-02-02 03:09:00,42.6,32.4,29.47,North,2,2.7,4.0,67,0.00,,---,0.00,VWS V14.01,2013-02-02 11:09:00,
2013-02-02 03:14:00,41.9,31.0,29.47,North,2,0.0,0.0,65,0.00,,---,0.00,VWS V14.01,2013-02-02 11:14:00,
2013-02-02 03:20:00,41.7,30.8,29.47,North,2,0.0,0.0,65,0.00,,---,0.00,VWS V14.01,2013-02-02 11:20:00,
2013-02-02 03:25:00,42.4,31.9,29.47,North,2,0.0,0.0,66,0.00,,---,0.00,VWS V14.01,2013-02-02 11:25:00,
2013-02-02 03:30:00,42.4,31.9,29.47,WNW,299,3.6,4.0,66,0.00,,---,0.00,VWS V14.01,2013-02-02 11:30:00,
2013-02-02 03:35:00,41.9,31.0,29.47,WNW,291,0.0,0.0,65,0.00,,---,0.00,VWS V14.01,2013-02-02 11:35:00,
2013-02-02 03:40:00,41.4,30.5,29.47,NW,310,0.0,0.0,65,0.00,,---,0.00,VWS V14.01,2013-02-02 11:40:00,
2013-02-02 03:45:00,41.2,30.3,29.47,NW,310,0.0,0.0,65,0.00,,---,0.00,VWS V14.01,2013-02-02 11:45:00,
2013-02-02 03:50:00,41.4,30.9,29.47,NW,310,0.0,0.0,66,0.00,,---,0.00,VWS V14.01,2013-02-02 11:50:00,
2013-02-02 03:55:00,41.4,30.9,29.47,NW,310,0.0,0.0,66,0.00,,---,0.00,VWS V14.01,2013-02-02 11:55:00,
2013-02-02 04:00:00,41.2,30.7,29.47,NW,310,0.0,0.0,66,0.00,,---,0.00,VWS V14.01,2013-02-02 12:00:00,
2013-02-02 04:05:00,41.2,30.7,29.47,NW,310,0.0,0.0,66,0.00,,---,0.00,VWS V14.01,2013-02-02 12:05:00,
2013-02-02 04:10:00,41.0,30.5,29.47,NW,310,0.0,0.0,66,0.00,,---,0.00,VWS V14.01,2013-02-02 12:10:00,
2013-02-02 04:15:00,41.4,31.2,29.47,NW,310,0.0,0.0,67,0.00,,---,0.00,VWS V14.01,2013-02-02 12:15:00,
2013-02-02 04:20:00,41.5,31.4,29.47,NW,310,0.0,0.0,67,0.00,,---,0.00,VWS V14.01,2013-02-02 12:20:00,
2013-02-02 04:25:00,41.5,31.8,29.47,NW,310,0.0,0.0,68,0.00,,---,0.00,VWS V14.01,2013-02-02 12:25:00,
2013-02-02 04:30:00,41.7,32.3,29.47,NW,310,0.0,0.0,69,0.00,,---,0.00,VWS V14.01,2013-02-02 12:30:00,
2013-02-02 04:35:00,42.1,32.7,29.47,NW,310,0.0,0.0,69,0.00,,---,0.00,VWS V14.01,2013-02-02 12:35:00,
2013-02-02 04:40:00,42.3,33.2,29.47,NW,310,0.0,0.0,70,0.00,,---,0.00,VWS V14.01,2013-02-02 12:40:00,
2013-02-02 04:45:00,42.3,33.2,29.47,NW,310,0.0,0.0,70,0.00,,---,0.00,VWS V14.01,2013-02-02 12:45:00,
2013-02-02 04:50:00,42.4,33.7,29.47,NW,310,0.0,0.0,71,0.00,,---,0.00,VWS V14.01,2013-02-02 12:50:00,
2013-02-02 04:55:00,42.8,34.4,29.47,NW,310,0.0,0.0,72,0.00,,---,0.00,VWS V14.01,2013-02-02 12:55:00,
2013-02-02 05:00:00,42.8,34.4,29.47,NW,310,0.0,0.0,72,0.00,,---,0.00,VWS V14.01,2013-02-02 13:00:00,
2013-02-02 05:05:00,42.1,33.4,29.47,NW,315,0.0,0.0,71,0.00,,---,0.00,VWS V14.01,2013-02-02 13:05:00,
2013-02-02 05:10:00,42.1,33.4,29.47,NW,315,0.0,0.0,71,0.00,,---,0.00,VWS V14.01,2013-02-02 13:10:00,
2013-02-02 05:15:00,41.5,32.5,29.47,NW,315,0.0,0.0,70,0.00,,---,0.00,VWS V14.01,2013-02-02 13:15:00,
2013-02-02 05:20:00,40.8,31.8,29.47,NW,315,0.0,0.0,70,0.00,,---,0.00,VWS V14.01,2013-02-02 13:20:00,
2013-02-02 05:25:00,41.4,32.3,29.47,NW,315,0.0,0.0,70,0.00,,---,0.00,VWS V14.01,2013-02-02 13:25:00,
2013-02-02 05:30:00,41.5,32.8,29.47,NW,315,0.0,0.0,71,0.00,,---,0.00,VWS V14.01,2013-02-02 13:30:00,
2013-02-02 05:35:00,41.0,31.6,29.47,NW,315,0.0,0.0,69,0.00,,---,0.00,VWS V14.01,2013-02-02 13:35:00,
2013-02-02 05:40:00,41.0,31.6,29.47,NW,315,0.0,0.0,69,0.00,,---,0.00,VWS V14.01,2013-02-02 13:40:00,
2013-02-02 05:45:00,41.0,32.0,29.47,NW,315,0.0,0.0,70,0.00,,---,0.00,VWS V14.01,2013-02-02 13:45:00,
2013-02-02 05:50:00,40.6,31.6,29.47,NW,315,0.0,3.6,70,0.00,,---,0.00,VWS V14.01,2013-02-02 13:50:00,
2013-02-02 05:55:00,40.3,30.9,29.47,NW,315,0.0,0.0,69,0.00,,---,0.00,VWS V14.01,2013-02-02 13:55:00,
2013-02-02 06:00:00,40.3,30.9,29.47,NW,315,0.0,0.0,69,0.00,,---,0.00,VWS V14.01,2013-02-02 14:00:00,
2013-02-02 06:05:00,40.5,31.5,29.47,NW,315,0.0,0.0,70,0.00,,---,0.00,VWS V14.01,2013-02-02 14:05:00,
2013-02-02 06:10:00,40.6,31.6,29.47,NW,315,0.0,0.0,70,0.00,,---,0.00,VWS V14.01,2013-02-02 14:10:00,
2013-02-02 06:15:00,40.8,32.2,29.47,NW,315,0.0,0.0,71,0.00,,---,0.00,VWS V14.01,2013-02-02 14:15:00,
2013-02-02 06:20:00,41.2,32.5,29.47,NW,315,0.0,0.0,71,0.00,,---,0.00,VWS V14.01,2013-02-02 14:20:00,
2013-02-02 06:25:00,41.9,33.5,29.47,NW,315,0.0,0.0,72,0.00,,---,0.00,VWS V14.01,2013-02-02 14:25:00,
2013-02-02 06:30:00,42.8,34.8,29.47,NW,315,0.0,0.0,73,0.00,,---,0.00,VWS V14.01,2013-02-02 14:30:00,
2013-02-02 06:35:00,43.2,35.5,29.47,NW,315,0.0,0.0,74,0.00,,---,0.00,VWS V14.01,2013-02-02 14:35:00,
2013-02-02 06:40:00,43.3,35.6,29.47,WNW,291,0.0,0.0,74,0.00,,---,0.00,VWS V14.01,2013-02-02 14:40:00,
2013-02-02 06:45:00,42.8,34.8,29.47,WNW,291,0.0,0.0,73,0.00,,---,0.00,VWS V14.01,2013-02-02 14:45:00,
2013-02-02 06:50:00,42.4,34.4,29.50,WNW,291,0.0,0.0,73,0.00,,---,0.00,VWS V14.01,2013-02-02 14:50:00,
2013-02-02 06:55:00,43.3,35.6,29.50,SSE,168,4.0,4.5,74,0.00,,---,0.00,VWS V14.01,2013-02-02 14:55:00,
2013-02-02 07:00:00,43.9,36.1,29.50,SE,142,4.5,4.9,74,0.00,,---,0.00,VWS V14.01,2013-02-02 15:00:00,
2013-02-02 07:05:00,43.9,36.1,29.50,SE,138,0.0,3.1,74,0.00,,---,0.00,VWS V14.01,2013-02-02 15:05:00,
2013-02-02 07:11:00,43.9,35.8,29.50,SE,138,0.0,0.0,73,0.00,,---,0.00,VWS V14.01,2013-02-02 15:11:00,
2013-02-02 07:16:00,44.1,36.0,29.50,SE,138,0.0,0.0,73,0.00,,---,0.00,VWS V14.01,2013-02-02 15:16:00,
2013-02-02 07:21:00,44.1,35.6,29.50,SE,139,4.5,4.5,72,0.00,,---,0.00,VWS V14.01,2013-02-02 15:21:00,
2013-02-02 07:26:00,44.2,35.5,29.50,SE,139,3.6,4.5,71,0.00,,---,0.00,VWS V14.01,2013-02-02 15:26:00,
2013-02-02 07:31:00,44.2,35.1,29.50,SE,138,0.0,0.0,70,0.00,,---,0.00,VWS V14.01,2013-02-02 15:31:00,
2013-02-02 07:36:00,44.6,35.1,29.50,ESE,105,0.0,0.0,69,0.00,,---,0.00,VWS V14.01,2013-02-02 15:36:00,
2013-02-02 07:41:00,45.0,34.7,29.50,SSE,156,4.5,4.9,67,0.00,,---,0.00,VWS V14.01,2013-02-02 15:41:00,
2013-02-02 07:46:00,45.1,34.5,29.50,SSE,156,0.0,2.7,66,0.00,,---,0.00,VWS V14.01,2013-02-02 15:46:00,
2013-02-02 07:51:00,44.8,33.4,29.50,SSE,156,0.0,0.0,64,0.00,,---,0.00,VWS V14.01,2013-02-02 15:51:00,
2013-02-02 07:56:00,44.4,33.0,29.50,SSE,156,0.0,0.0,64,0.00,,---,0.00,VWS V14.01,2013-02-02 15:56:00,
2013-02-02 08:01:00,44.4,32.6,29.50,SSE,156,0.0,0.0,63,0.00,,---,0.00,VWS V14.01,2013-02-02 16:01:00,
2013-02-02 08:06:00,44.2,32.5,29.50,SSE,156,0.0,0.0,63,0.00,,---,0.00,VWS V14.01,2013-02-02 16:06:00,
2013-02-02 08:11:00,44.1,32.3,29.50,SSE,156,0.0,0.0,63,0.00,,---,0.00,VWS V14.01,2013-02-02 16:11:00,
2013-02-02 08:16:00,44.1,31.9,29.53,SSE,156,0.0,0.0,62,0.00,,---,0.00,VWS V14.01,2013-02-02 16:16:00,
2013-02-02 08:21:00,44.1,31.9,29.53,SSE,156,0.0,3.1,62,0.00,,---,0.00,VWS V14.01,2013-02-02 16:21:00,
2013-02-02 08:26:00,44.2,32.5,29.53,SSE,156,3.6,4.0,63,0.00,,---,0.00,VWS V14.01,2013-02-02 16:26:00,
2013-02-02 08:31:00,44.6,32.8,29.53,SSE,156,0.0,2.7,63,0.00,,---,0.00,VWS V14.01,2013-02-02 16:31:00,
2013-02-02 08:36:00,45.1,33.7,29.53,NW,314,4.0,4.5,64,0.00,,---,0.00,VWS V14.01,2013-02-02 16:36:00,
2013-02-02 08:41:00,45.3,33.9,29.53,NW,321,3.1,4.0,64,0.00,,---,0.00,VWS V14.01,2013-02-02 16:41:00,
2013-02-02 08:47:00,45.9,34.4,29.53,WNW,295,4.0,4.9,64,0.00,,---,0.00,VWS V14.01,2013-02-02 16:47:00,
2013-02-02 08:52:00,46.4,35.3,29.53,WNW,300,5.4,5.4,65,0.00,,---,0.00,VWS V14.01,2013-02-02 16:52:00,
2013-02-02 08:57:00,46.9,35.8,29.53,West,274,4.0,5.4,65,0.00,,---,0.00,VWS V14.01,2013-02-02 16:57:00,
2013-02-02 09:02:00,47.1,36.0,29.53,WNW,294,4.0,4.9,65,0.00,,---,0.00,VWS V14.01,2013-02-02 17:02:00,
2013-02-02 09:07:00,47.3,36.2,29.53,WNW,293,0.0,0.0,65,0.00,,---,0.00,VWS V14.01,2013-02-02 17:07:00,
2013-02-02 09:12:00,47.3,35.4,29.53,NW,316,0.0,0.0,63,0.00,,---,0.00,VWS V14.01,2013-02-02 17:12:00,
2013-02-02 09:17:00,47.1,34.4,29.53,NW,317,0.0,0.0,61,0.00,,---,0.00,VWS V14.01,2013-02-02 17:17:00,
2013-02-02 09:22:00,47.5,33.9,29.53,NW,317,0.0,0.0,59,0.00,,---,0.00,VWS V14.01,2013-02-02 17:22:00,
2013-02-02 09:27:00,48.4,33.9,29.53,North,6,2.7,3.6,57,0.00,,---,0.00,VWS V14.01,2013-02-02 17:27:00,
2013-02-02 09:32:00,48.9,31.6,29.53,North,6,0.0,0.0,51,0.00,,---,0.00,VWS V14.01,2013-02-02 17:32:00,
2013-02-02 09:37:00,50.0,31.1,29.53,NW,326,3.1,4.0,48,0.00,,---,0.00,VWS V14.01,2013-02-02 17:37:00,
2013-02-02 09:42:00,50.7,29.1,29.53,West,278,3.1,3.6,43,0.00,,---,0.00,VWS V14.01,2013-02-02 17:42:00,
2013-02-02 09:47:00,51.4,26.7,29.53,West,278,0.0,0.0,38,0.00,,---,0.00,VWS V14.01,2013-02-02 17:47:00,
2013-02-02 09:52:00,51.8,26.4,29.53,West,278,0.0,0.0,37,0.00,,---,0.00,VWS V14.01,2013-02-02 17:52:00,
2013-02-02 09:57:00,52.5,27.0,29.53,West,278,0.0,0.0,37,0.00,,---,0.00,VWS V14.01,2013-02-02 17:57:00,
2013-02-02 10:02:00,53.1,26.1,29.50,West,278,0.0,0.0,35,0.00,,---,0.00,VWS V14.01,2013-02-02 18:02:00,
2013-02-02 10:07:00,53.2,24.9,29.50,West,278,0.0,0.0,33,0.00,,---,0.00,VWS V14.01,2013-02-02 18:07:00,
2013-02-02 10:13:00,54.7,24.7,29.50,West,278,0.0,0.0,31,0.00,,---,0.00,VWS V14.01,2013-02-02 18:13:00,
2013-02-02 10:18:00,55.6,24.7,29.53,West,264,0.0,3.6,30,0.00,,---,0.00,VWS V14.01,2013-02-02 18:18:00,
2013-02-02 10:23:00,56.3,23.6,29.53,WSW,245,0.0,4.5,28,0.00,,---,0.00,VWS V14.01,2013-02-02 18:23:00,
2013-02-02 10:28:00,56.8,24.1,29.53,WSW,245,0.0,0.0,28,0.00,,---,0.00,VWS V14.01,2013-02-02 18:28:00,
2013-02-02 10:33:00,57.2,23.5,29.50,WSW,245,0.0,0.0,27,0.00,,---,0.00,VWS V14.01,2013-02-02 18:33:00,
2013-02-02 10:38:00,57.4,23.7,29.50,WSW,245,0.0,0.0,27,0.00,,---,0.00,VWS V14.01,2013-02-02 18:38:00,
2013-02-02 10:43:00,57.6,23.9,29.50,WSW,245,0.0,0.0,27,0.00,,---,0.00,VWS V14.01,2013-02-02 18:43:00,
2013-02-02 10:48:00,58.1,23.4,29.50,WSW,241,4.0,4.0,26,0.00,,---,0.00,VWS V14.01,2013-02-02 18:48:00,
2013-02-02 10:53:00,58.6,23.9,29.50,NNW,341,0.0,0.0,26,0.00,,---,0.00,VWS V14.01,2013-02-02 18:53:00,
2013-02-02 10:58:00,59.2,24.3,29.50,NNW,339,0.0,0.0,26,0.00,,---,0.00,VWS V14.01,2013-02-02 18:58:00,
2013-02-02 11:03:00,58.8,23.1,29.50,NNE,18,3.1,3.6,25,0.00,,---,0.00,VWS V14.01,2013-02-02 19:03:00,
2013-02-02 11:08:00,58.8,23.1,29.50,NW,325,4.5,4.5,25,0.00,,---,0.00,VWS V14.01,2013-02-02 19:08:00,
2013-02-02 11:13:00,59.2,24.3,29.50,NW,324,0.0,3.6,26,0.00,,---,0.00,VWS V14.01,2013-02-02 19:13:00,
2013-02-02 11:18:00,59.2,24.3,29.50,NNW,333,3.1,4.9,26,0.00,,---,0.00,VWS V14.01,2013-02-02 19:18:00,
2013-02-02 11:23:00,60.1,25.1,29.50,North,351,0.0,0.0,26,0.00,,---,0.00,VWS V14.01,2013-02-02 19:23:00,
2013-02-02 11:28:00,60.8,25.7,29.50,NW,306,0.0,3.1,26,0.00,,---,0.00,VWS V14.01,2013-02-02 19:28:00,
2013-02-02 11:33:00,60.3,25.3,29.50,NNE,29,5.4,8.3,26,0.00,,---,0.00,VWS V14.01,2013-02-02 19:33:00,
2013-02-02 11:38:00,59.9,25.0,29.50,North,356,7.8,7.8,26,0.00,,---,0.00,VWS V14.01,2013-02-02 19:38:00,
2013-02-02 11:44:00,59.4,25.4,29.50,NNE,23,8.3,9.6,27,0.00,,---,0.00,VWS V14.01,2013-02-02 19:44:00,
2013-02-02 11:49:00,58.8,24.9,29.50,North,6,7.4,7.8,27,0.00,,---,0.00,VWS V14.01,2013-02-02 19:49:00,
2013-02-02 11:54:00,58.5,24.6,29.50,NNE,29,8.7,9.6,27,0.00,,---,0.00,VWS V14.01,2013-02-02 19:54:00,
2013-02-02 11:59:00,58.1,23.4,29.50,NNE,22,6.3,8.7,26,0.00,,---,0.00,VWS V14.01,2013-02-02 19:59:00,
2013-02-02 12:04:00,58.5,24.6,29.50,NNE,33,5.4,6.9,27,0.00,,---,0.00,VWS V14.01,2013-02-02 20:04:00,
2013-02-02 12:09:00,58.5,24.6,29.50,NNE,30,7.4,7.4,27,0.00,,---,0.00,VWS V14.01,2013-02-02 20:09:00,
2013-02-02 12:15:00,58.5,23.7,29.50,NE,49,5.4,5.8,26,0.00,,---,0.00,VWS V14.01,2013-02-02 20:15:00,
2013-02-02 12:20:00,58.6,24.8,29.47,NE,34,5.8,6.3,27,0.00,,---,0.00,VWS V14.01,2013-02-02 20:20:00,
2013-02-02 12:25:00,58.6,23.9,29.47,NE,54,6.7,6.7,26,0.00,,---,0.00,VWS V14.01,2013-02-02 20:25:00,
2013-02-02 12:30:00,58.6,23.9,29.47,NE,38,6.3,7.8,26,0.00,,---,0.00,VWS V14.01,2013-02-02 20:30:00,
2013-02-02 12:35:00,59.0,23.2,29.47,NE,39,6.9,6.9,25,0.00,,---,0.00,VWS V14.01,2013-02-02 20:35:00,
2013-02-02 12:40:00,59.2,24.3,29.47,NNE,25,6.7,8.3,26,0.00,,---,0.00,VWS V14.01,2013-02-02 20:40:00,
2013-02-02 12:45:00,59.7,23.9,29.47,NE,49,5.8,7.4,25,0.00,,---,0.00,VWS V14.01,2013-02-02 20:45:00,
2013-02-02 12:50:00,59.9,24.0,29.47,NE,36,6.7,7.4,25,0.00,,---,0.00,VWS V14.01,2013-02-02 20:50:00,
2013-02-02 12:55:00,59.7,23.9,29.47,NNE,28,5.8,6.9,25,0.00,,---,0.00,VWS V14.01,2013-02-02 20:55:00,
2013-02-02 13:00:00,60.1,24.2,29.47,ENE,62,7.4,7.4,25,0.00,,---,0.00,VWS V14.01,2013-02-02 21:00:00,
2013-02-02 13:05:00,59.7,23.9,29.47,ENE,77,5.4,6.3,25,0.00,,---,0.00,VWS V14.01,2013-02-02 21:05:00,
2013-02-02 13:10:00,59.9,24.0,29.47,NE,37,5.4,6.3,25,0.00,,---,0.00,VWS V14.01,2013-02-02 21:10:00,
2013-02-02 13:15:00,60.3,24.3,29.47,NE,54,5.8,6.9,25,0.00,,---,0.00,VWS V14.01,2013-02-02 21:15:00,
2013-02-02 13:20:00,60.6,24.6,29.44,ENE,74,7.4,8.3,25,0.00,,---,0.00,VWS V14.01,2013-02-02 21:20:00,
2013-02-02 13:25:00,60.1,24.2,29.44,ENE,67,6.9,8.7,25,0.00,,---,0.00,VWS V14.01,2013-02-02 21:25:00,
2013-02-02 13:30:00,60.6,24.6,29.44,East,90,6.7,7.8,25,0.00,,---,0.00,VWS V14.01,2013-02-02 21:30:00,
2013-02-02 13:35:00,60.3,24.3,29.44,East,83,6.9,8.3,25,0.00,,---,0.00,VWS V14.01,2013-02-02 21:35:00,
2013-02-02 13:40:00,60.4,24.5,29.44,East,100,6.9,7.4,25,0.00,,---,0.00,VWS V14.01,2013-02-02 21:40:00,
2013-02-02 13:45:00,60.4,24.5,29.44,NNE,33,10.1,11.0,25,0.00,,---,0.00,VWS V14.01,2013-02-02 21:45:00,
2013-02-02 13:50:00,60.4,24.5,29.44,East,79,7.4,8.7,25,0.00,,---,0.00,VWS V14.01,2013-02-02 21:50:00,
2013-02-02 13:55:00,60.3,24.3,29.44,ENE,75,8.7,9.6,25,0.00,,---,0.00,VWS V14.01,2013-02-02 21:55:00,
2013-02-02 14:00:00,59.7,24.8,29.44,ENE,72,7.8,8.7,26,0.00,,---,0.00,VWS V14.01,2013-02-02 22:00:00,
2013-02-02 14:05:00,59.0,24.2,29.44,East,84,7.8,9.2,26,0.00,,---,0.00,VWS V14.01,2013-02-02 22:05:00,
2013-02-02 14:10:00,58.6,23.9,29.44,ENE,65,9.6,9.6,26,0.00,,---,0.00,VWS V14.01,2013-02-02 22:10:00,
2013-02-02 14:15:00,58.5,24.6,29.44,East,80,7.8,8.3,27,0.00,,---,0.00,VWS V14.01,2013-02-02 22:15:00,
2013-02-02 14:20:00,58.6,24.8,29.44,ENE,75,6.9,9.6,27,0.00,,---,0.00,VWS V14.01,2013-02-02 22:20:00,
2013-02-02 14:25:00,58.5,24.6,29.44,ENE,72,8.7,8.7,27,0.00,,---,0.00,VWS V14.01,2013-02-02 22:25:00,
2013-02-02 14:30:00,58.5,24.6,29.44,East,85,6.9,8.3,27,0.00,,---,0.00,VWS V14.01,2013-02-02 22:30:00,
2013-02-02 14:35:00,58.5,24.6,29.44,NE,40,9.6,10.1,27,0.00,,---,0.00,VWS V14.01,2013-02-02 22:35:00,
2013-02-02 14:40:00,58.6,24.8,29.44,ENE,63,6.7,7.8,27,0.00,,---,0.00,VWS V14.01,2013-02-02 22:40:00,
2013-02-02 14:45:00,58.8,25.8,29.44,ENE,57,6.7,7.4,28,0.00,,---,0.00,VWS V14.01,2013-02-02 22:45:00,
2013-02-02 14:50:00,59.0,26.0,29.44,ENE,60,7.4,9.2,28,0.00,,---,0.00,VWS V14.01,2013-02-02 22:50:00,
2013-02-02 14:55:00,58.6,24.8,29.44,NE,54,8.3,11.0,27,0.00,,---,0.00,VWS V14.01,2013-02-02 22:55:00,
2013-02-02 15:00:00,58.5,24.6,29.44,NE,54,8.3,9.2,27,0.00,,---,0.00,VWS V14.01,2013-02-02 23:00:00,
2013-02-02 15:05:00,58.3,24.5,29.44,NNE,31,9.6,10.1,27,0.00,,---,0.00,VWS V14.01,2013-02-02 23:05:00,
2013-02-02 15:10:00,58.5,25.5,29.44,ENE,75,7.4,8.3,28,0.00,,---,0.00,VWS V14.01,2013-02-02 23:10:00,
2013-02-02 15:15:00,58.5,25.5,29.44,ENE,60,7.8,8.7,28,0.00,,---,0.00,VWS V14.01,2013-02-02 23:15:00,
2013-02-02 15:20:00,58.6,24.8,29.44,NE,45,6.3,6.9,27,0.00,,---,0.00,VWS V14.01,2013-02-02 23:20:00,
2013-02-02 15:25:00,58.6,24.8,29.44,NNE,32,6.7,8.7,27,0.00,,---,0.00,VWS V14.01,2013-02-02 23:25:00,
2013-02-02 15:30:00,58.8,25.8,29.44,NE,46,4.0,6.7,28,0.00,,---,0.00,VWS V14.01,2013-02-02 23:30:00,
2013-02-02 15:35:00,58.8,25.8,29.44,East,85,6.7,7.4,28,0.00,,---,0.00,VWS V14.01,2013-02-02 23:35:00,
2013-02-02 15:40:00,58.6,25.6,29.44,ENE,58,7.8,8.3,28,0.00,,---,0.00,VWS V14.01,2013-02-02 23:40:00,
2013-02-02 15:45:00,58.5,25.5,29.44,ENE,74,6.7,8.3,28,0.00,,---,0.00,VWS V14.01,2013-02-02 23:45:00,
2013-02-02 15:50:00,58.3,25.3,29.44,ENE,76,6.9,6.9,28,0.00,,---,0.00,VWS V14.01,2013-02-02 23:50:00,
2013-02-02 15:55:00,58.5,25.5,29.44,ENE,74,6.7,6.7,28,0.00,,---,0.00,VWS V14.01,2013-02-02 23:55:00,
2013-02-02 16:00:00,58.8,25.8,29.44,ENE,69,6.3,6.9,28,0.00,,---,0.00,VWS V14.01,2013-02-03 00:00:00,
2013-02-02 16:05:00,59.0,26.0,29.44,East,83,6.7,6.7,28,0.00,,---,0.00,VWS V14.01,2013-02-03 00:05:00,
2013-02-02 16:10:00,58.8,25.8,29.44,ENE,72,6.3,6.9,28,0.00,,---,0.00,VWS V14.01,2013-02-03 00:10:00,
2013-02-02 16:15:00,58.6,25.6,29.44,ENE,59,5.4,5.8,28,0.00,,---,0.00,VWS V14.01,2013-02-03 00:15:00,
2013-02-02 16:20:00,58.5,25.5,29.44,ENE,59,5.8,6.3,28,0.00,,---,0.00,VWS V14.01,2013-02-03 00:20:00,
2013-02-02 16:25:00,58.5,24.6,29.44,ENE,58,5.4,6.7,27,0.00,,---,0.00,VWS V14.01,2013-02-03 00:25:00,
2013-02-02 16:30:00,58.5,24.6,29.44,ENE,68,4.9,5.4,27,0.00,,---,0.00,VWS V14.01,2013-02-03 00:30:00,
2013-02-02 16:35:00,58.3,24.5,29.44,ENE,67,4.9,5.4,27,0.00,,---,0.00,VWS V14.01,2013-02-03 00:35:00,
2013-02-02 16:40:00,57.9,24.2,29.44,East,85,4.5,4.5,27,0.00,,---,0.00,VWS V14.01,2013-02-03 00:40:00,
2013-02-02 16:45:00,57.4,24.6,29.44,East,84,4.9,5.4,28,0.00,,---,0.00,VWS V14.01,2013-02-03 00:45:00,
2013-02-02 16:50:00,57.2,25.2,29.44,ENE,77,4.9,4.9,29,0.00,,---,0.00,VWS V14.01,2013-02-03 00:50:00,
2013-02-02 16:55:00,56.8,25.8,29.44,East,83,3.6,4.5,30,0.00,,---,0.00,VWS V14.01,2013-02-03 00:55:00,
2013-02-02 17:00:00,56.5,25.4,29.44,ENE,71,5.8,6.3,30,0.00,,---,0.00,VWS V14.01,2013-02-03 01:00:00,
2013-02-02 17:05:00,56.5,26.2,29.44,ENE,69,5.4,5.4,31,0.00,,---,0.00,VWS V14.01,2013-02-03 01:05:00,
2013-02-02 17:10:00,56.5,26.2,29.44,ENE,67,4.9,5.4,31,0.00,,---,0.00,VWS V14.01,2013-02-03 01:10:00,
2013-02-02 17:16:00,56.1,25.9,29.44,ENE,65,5.8,5.8,31,0.00,,---,0.00,VWS V14.01,2013-02-03 01:16:00,
2013-02-02 17:21:00,55.9,25.8,29.44,ENE,68,4.0,4.0,31,0.00,,---,0.00,VWS V14.01,2013-02-03 01:21:00,
2013-02-02 17:26:00,55.9,25.8,29.44,ENE,68,4.0,4.0,31,0.00,,---,0.00,VWS V14.01,2013-02-03 01:26:00,
2013-02-02 17:32:00,54.9,25.6,29.44,East,100,3.6,3.6,32,0.00,,---,0.00,VWS V14.01,2013-02-03 01:32:00,
2013-02-02 17:37:00,54.9,25.6,29.44,East,100,3.6,3.6,32,0.00,,---,0.00,VWS V14.01,2013-02-03 01:37:00,
2013-02-02 17:42:00,55.0,25.7,29.44,East,100,3.1,3.1,32,0.00,,---,0.00,VWS V14.01,2013-02-03 01:42:00,
2013-02-02 17:47:00,55.0,25.7,29.44,East,100,0.0,3.1,32,0.00,,---,0.00,VWS V14.01,2013-02-03 01:47:00,
2013-02-02 17:52:00,55.0,25.7,29.44,East,100,0.0,0.0,32,0.00,,---,0.00,VWS V14.01,2013-02-03 01:52:00,
2013-02-02 17:57:00,55.0,25.7,29.44,East,100,0.0,0.0,32,0.00,,---,0.00,VWS V14.01,2013-02-03 01:57:00,
2013-02-02 18:02:00,52.3,26.9,29.44,East,100,0.0,0.0,37,0.00,,---,0.00,VWS V14.01,2013-02-03 02:02:00,
2013-02-02 18:07:00,52.5,27.0,29.44,East,100,3.6,3.6,37,0.00,,---,0.00,VWS V14.01,2013-02-03 02:07:00,
2013-02-02 18:12:00,52.3,26.9,29.44,SE,124,4.0,4.5,37,0.00,,---,0.00,VWS V14.01,2013-02-03 02:12:00,
2013-02-02 18:17:00,52.2,26.7,29.44,SE,135,4.9,4.9,37,0.00,,---,0.00,VWS V14.01,2013-02-03 02:17:00,
2013-02-02 18:22:00,52.0,26.5,29.44,SE,135,3.1,3.6,37,0.00,,---,0.00,VWS V14.01,2013-02-03 02:22:00,
2013-02-02 18:27:00,52.3,26.9,29.44,ESE,117,3.1,4.0,37,0.00,,---,0.00,VWS V14.01,2013-02-03 02:27:00,
2013-02-02 18:32:00,51.6,26.2,29.47,East,99,3.6,3.6,37,0.00,,---,0.00,VWS V14.01,2013-02-03 02:32:00,
2013-02-02 18:37:00,50.7,26.0,29.47,East,99,3.1,3.1,38,0.00,,---,0.00,VWS V14.01,2013-02-03 02:37:00,
2013-02-02 18:42:00,50.2,26.8,29.47,NNE,31,0.0,0.0,40,0.00,,---,0.00,VWS V14.01,2013-02-03 02:42:00,
2013-02-02 18:47:00,50.4,28.7,29.47,NNE,31,0.0,0.0,43,0.00,,---,0.00,VWS V14.01,2013-02-03 02:47:00,
2013-02-02 18:52:00,50.2,29.1,29.47,NNE,31,0.0,0.0,44,0.00,,---,0.00,VWS V14.01,2013-02-03 02:52:00,
2013-02-02 18:57:00,50.4,30.4,29.47,NNE,31,0.0,0.0,46,0.00,,---,0.00,VWS V14.01,2013-02-03 02:57:00,
2013-02-02 19:02:00,50.4,30.4,29.47,NE,50,0.0,0.0,46,0.00,,---,0.00,VWS V14.01,2013-02-03 03:02:00,
2013-02-02 19:08:00,49.8,28.2,29.47,NE,50,0.0,0.0,43,0.00,,---,0.00,VWS V14.01,2013-02-03 03:08:00,
2013-02-02 19:13:00,49.6,30.2,29.47,ESE,107,4.5,4.5,47,0.00,,---,0.00,VWS V14.01,2013-02-03 03:13:00,
2013-02-02 19:18:00,50.2,32.3,29.47,ESE,122,4.0,4.5,50,0.00,,---,0.00,VWS V14.01,2013-02-03 03:18:00,
2013-02-02 19:23:00,50.9,32.9,29.47,SE,132,4.9,5.4,50,0.00,,---,0.00,VWS V14.01,2013-02-03 03:23:00,
2013-02-02 19:28:00,50.5,32.1,29.47,SE,136,5.4,5.8,49,0.00,,---,0.00,VWS V14.01,2013-02-03 03:28:00,
2013-02-02 19:33:00,50.5,32.6,29.47,SE,130,4.5,5.4,50,0.00,,---,0.00,VWS V14.01,2013-02-03 03:33:00,
2013-02-02 19:38:00,50.4,32.4,29.47,SE,127,3.6,4.0,50,0.00,,---,0.00,VWS V14.01,2013-02-03 03:38:00,
2013-02-02 19:43:00,50.2,32.3,29.47,SE,133,4.0,4.0,50,0.00,,---,0.00,VWS V14.01,2013-02-03 03:43:00,
2013-02-02 19:48:00,50.2,32.3,29.47,SE,133,4.0,4.0,50,0.00,,---,0.00,VWS V14.01,2013-02-03 03:48:00,
2013-02-02 19:53:00,49.6,32.3,29.47,SE,129,4.0,4.0,51,0.00,,---,0.00,VWS V14.01,2013-02-03 03:53:00,
2013-02-02 19:58:00,49.5,31.6,29.47,SE,129,4.9,4.9,50,0.00,,---,0.00,VWS V14.01,2013-02-03 03:58:00,
2013-02-02 20:03:00,49.5,31.6,29.47,SE,129,4.9,4.9,50,0.00,,---,0.00,VWS V14.01,2013-02-03 04:03:00,
2013-02-02 20:08:00,49.8,32.9,29.47,SE,128,4.9,4.9,52,0.00,,---,0.00,VWS V14.01,2013-02-03 04:08:00,
2013-02-02 20:13:00,50.2,34.2,29.47,SE,125,4.5,4.9,54,0.00,,---,0.00,VWS V14.01,2013-02-03 04:13:00,
2013-02-02 20:18:00,50.2,34.2,29.47,SE,125,4.5,4.5,54,0.00,,---,0.00,VWS V14.01,2013-02-03 04:18:00,
2013-02-02 20:23:00,50.2,34.2,29.47,SE,125,4.5,4.5,54,0.00,,---,0.00,VWS V14.01,2013-02-03 04:23:00,
2013-02-02 20:28:00,50.2,34.2,29.47,SE,125,4.5,4.5,54,0.00,,---,0.00,VWS V14.01,2013-02-03 04:28:00,
2013-02-02 20:33:00,50.2,34.2,29.47,SE,125,4.5,4.5,54,0.00,,---,0.00,VWS V14.01,2013-02-03 04:33:00,
2013-02-02 20:39:00,49.1,31.3,29.47,ESE,110,2.7,3.6,50,0.00,,---,0.00,VWS V14.01,2013-02-03 04:39:00,
2013-02-02 20:44:00,48.6,33.6,29.47,SE,125,0.0,3.6,56,0.00,,---,0.00,VWS V14.01,2013-02-03 04:44:00,
2013-02-02 20:49:00,47.8,32.5,29.47,SE,125,3.1,3.1,55,0.00,,---,0.00,VWS V14.01,2013-02-03 04:49:00,
2013-02-02 20:54:00,47.1,33.1,29.47,ESE,118,3.1,3.1,58,0.00,,---,0.00,VWS V14.01,2013-02-03 04:54:00,
2013-02-02 20:59:00,47.1,33.1,29.47,ESE,118,3.1,3.1,58,0.00,,---,0.00,VWS V14.01,2013-02-03 04:59:00,
2013-02-02 21:00:00,47.1,33.1,29.47,ESE,118,3.1,3.1,58,0.00,,---,0.00,VWS V14.01,2013-02-03 05:00:00,
2013-02-02 21:01:00,47.1,33.1,29.47,ESE,118,3.1,3.1,58,0.00,,---,0.00,VWS V14.01,2013-02-03 05:01:00,
2013-02-02 21:02:00,47.1,33.1,29.47,ESE,118,3.1,3.1,58,0.00,,---,0.00,VWS V14.01,2013-02-03 05:02:00,
2013-02-02 21:04:00,47.1,33.1,29.47,ESE,118,4.0,4.0,58,0.00,,---,0.00,VWS V14.01,2013-02-03 05:04:00,
2013-02-02 21:09:00,47.1,33.1,29.47,ESE,118,4.0,4.0,58,0.00,,---,0.00,VWS V14.01,2013-02-03 05:09:00,
2013-02-02 21:14:00,47.1,33.1,29.47,ESE,118,3.6,4.0,58,0.00,,---,0.00,VWS V14.01,2013-02-03 05:14:00,
2013-02-02 21:19:00,47.3,33.7,29.47,ESE,118,3.6,3.6,59,0.00,,---,0.00,VWS V14.01,2013-02-03 05:19:00,
2013-02-02 21:24:00,47.3,33.7,29.47,ESE,118,3.6,3.6,59,0.00,,---,0.00,VWS V14.01,2013-02-03 05:24:00,
2013-02-02 21:29:00,47.3,33.7,29.47,ESE,118,3.6,3.6,59,0.00,,---,0.00,VWS V14.01,2013-02-03 05:29:00,
2013-02-02 21:34:00,43.7,29.9,29.47,ESE,118,0.0,0.0,58,0.00,,---,0.00,VWS V14.01,2013-02-03 05:34:00,
2013-02-02 21:39:00,43.7,30.3,29.47,ESE,118,0.0,0.0,59,0.00,,---,0.00,VWS V14.01,2013-02-03 05:39:00,
2013-02-02 21:44:00,44.1,31.1,29.47,ESE,118,0.0,0.0,60,0.00,,---,0.00,VWS V14.01,2013-02-03 05:44:00,
2013-02-02 21:49:00,44.2,32.1,29.47,ESE,118,0.0,0.0,62,0.00,,---,0.00,VWS V14.01,2013-02-03 05:49:00,
2013-02-02 21:54:00,44.4,33.0,29.47,ESE,118,0.0,0.0,64,0.00,,---,0.00,VWS V14.01,2013-02-03 05:54:00,
2013-02-02 21:59:00,44.2,32.8,29.47,ESE,118,0.0,0.0,64,0.00,,---,0.00,VWS V14.01,2013-02-03 05:59:00,
2013-02-02 22:04:00,44.6,34.0,29.47,ESE,118,0.0,0.0,66,0.00,,---,0.00,VWS V14.01,2013-02-03 06:04:00,
2013-02-02 22:09:00,44.8,34.9,29.47,ESE,118,0.0,0.0,68,0.00,,---,0.00,VWS V14.01,2013-02-03 06:09:00,
2013-02-02 22:14:00,44.8,35.6,29.47,ESE,118,3.1,3.1,70,0.00,,---,0.00,VWS V14.01,2013-02-03 06:14:00,
2013-02-02 22:19:00,44.8,36.0,29.47,ESE,118,2.7,3.6,71,0.00,,---,0.00,VWS V14.01,2013-02-03 06:19:00,
2013-02-02 22:24:00,44.6,35.8,29.47,ESE,118,2.7,2.7,71,0.00,,---,0.00,VWS V14.01,2013-02-03 06:24:00,
2013-02-02 22:29:00,44.8,36.0,29.47,ESE,118,2.7,3.1,71,0.00,,---,0.00,VWS V14.01,2013-02-03 06:29:00,
2013-02-02 22:34:00,44.4,35.6,29.47,ESE,118,0.0,0.0,71,0.00,,---,0.00,VWS V14.01,2013-02-03 06:34:00,
2013-02-02 22:39:00,44.6,36.2,29.47,SE,132,0.0,3.6,72,0.00,,---,0.00,VWS V14.01,2013-02-03 06:39:00,
2013-02-02 22:44:00,44.6,36.2,29.47,SSE,149,4.5,4.5,72,0.00,,---,0.00,VWS V14.01,2013-02-03 06:44:00,
2013-02-02 22:49:00,45.3,37.2,29.47,SSE,150,3.1,4.0,73,0.00,,---,0.00,VWS V14.01,2013-02-03 06:49:00,
2013-02-02 22:54:00,45.5,37.4,29.47,SSE,151,2.7,3.6,73,0.00,,---,0.00,VWS V14.01,2013-02-03 06:54:00,
2013-02-02 23:00:00,45.1,37.0,29.47,SSE,151,0.0,0.0,73,0.00,,---,0.00,VWS V14.01,2013-02-03 07:00:00,
2013-02-02 23:06:00,44.6,36.2,29.47,SSE,151,0.0,0.0,72,0.00,,---,0.00,VWS V14.01,2013-02-03 07:06:00,
2013-02-02 23:11:00,44.6,36.2,29.47,SSE,152,0.0,0.0,72,0.00,,---,0.00,VWS V14.01,2013-02-03 07:11:00,
2013-02-02 23:16:00,45.3,37.2,29.47,SSE,158,3.6,3.6,73,0.00,,---,0.00,VWS V14.01,2013-02-03 07:16:00,
2013-02-02 23:21:00,45.3,37.5,29.47,SE,138,4.0,4.5,74,0.00,,---,0.00,VWS V14.01,2013-02-03 07:21:00,
2013-02-02 23:26:00,45.0,36.8,29.47,SE,140,4.0,4.0,73,0.00,,---,0.00,VWS V14.01,2013-02-03 07:26:00,
2013-02-02 23:31:00,45.0,37.2,29.47,SE,140,3.1,3.6,74,0.00,,---,0.00,VWS V14.01,2013-02-03 07:31:00,
2013-02-02 23:37:00,44.8,37.0,29.47,SE,140,0.0,0.0,74,0.00,,---,0.00,VWS V14.01,2013-02-03 07:37:00,
2013-02-02 23:42:00,44.4,36.7,29.47,SE,140,0.0,0.0,74,0.00,,---,0.00,VWS V14.01,2013-02-03 07:42:00,
2013-02-02 23:47:00,43.5,35.5,29.47,SE,140,0.0,0.0,73,0.00,,---,0.00,VWS V14.01,2013-02-03 07:47:00,
2013-02-02 23:52:00,43.7,35.6,29.47,SE,140,0.0,0.0,73,0.00,,---,0.00,VWS V14.01,2013-02-03 07:52:00,
2013-02-02 23:57:00,44.2,36.5,29.47,SE,140,0.0,0.0,74,0.00,,---,0.00,VWS V14.01,2013-02-03 07:57:00,